www.pogodaiklimat.ru

Погода и климат >> Архив погоды >> Россия >> Чукотка >> 21 км


ПОГОДА на 21 км

  • Прогноз погоды на 21 км
  • Монитор погоды на 21 км

АРХИВ ПОГОДЫ на 21 км

Время (UTC), дата Ветер
(напр.,м/с)
 
Видим.   Явления Облачность Т
(С)
Тd
(С)
f
(%)
Тe
(С)
Тes
(С)
Комфортность P
(гПа)
Po
(гПа)
Тmin
(С)
Tmax
(С)
R
(мм)
R24
(мм)
S
(см)
09 13.04 ЮЗ 2 н/о н/о -13.0 -18.2 65 -18 -18 1012.8 991.0 -7.1
12 13.04 Ю 2 н/о н/о -13.7 -18.4 68 -18 -18 1013.4 991.5
15 13.04 Ю 1 н/о н/о -13.5 -17.2 74 -16 -16 1013.4 991.5
18 13.04 Ю 1 н/о н/о -14.2 -17.3 77 -17 -17 1013.8 991.9
21 13.04 ЮЗ 2 н/о н/о -12.6 -17.2 68 -17 -17 1014.2 992.4 -14.5
00 14.04 ЮВ 3 н/о н/о -10.7 -16.1 64 -17 -17 1014.7 993.0
03 14.04 Ю 5 н/о н/о -11.5 -15.7 71 -19 -19 1015.3 993.5
06 14.04 Ю 5 н/о н/о -11.3 -16.2 67 -19 -19 1015.5 993.8
09 14.04 ЮВ 6 н/о н/о -10.9 -17.0 61 -19 -19 1016.4 994.7 -10.6
12 14.04 ЮВ 6 н/о н/о -10.1 -16.6 59 -19 -19 1016.8 995.1
15 14.04 ЮВ 6 н/о н/о -9.3 -15.8 59 -18 -18 1016.8 995.2
18 14.04 ЮВ 5 н/о н/о -11.0 -16.3 65 -19 -19 1017.2 995.4
21 14.04 ЮВ 5 н/о н/о -8.3 -14.3 62 -16 -16 1017.5 996.0 -12.3
00 15.04 Ю 5 н/о н/о -7.5 -13.1 64 -15 -15 1017.7 996.2
03 15.04 Ю 4 н/о н/о -6.6 -12.7 62 -13 -13 1017.8 996.4
06 15.04 штиль 0 н/о н/о -5.4 -13.6 52 -6 -6 1017.7 996.4
09 15.04 ЮВ 3 н/о н/о -6.9 -14.5 55 -12 -12 1018.2 996.8 -4.2
12 15.04 ЮВ 2 н/о н/о -7.7 -14.7 57 -12 -12 1018.1 996.6
15 15.04 В 5 н/о н/о -6.6 -14.3 54 -14 -14 1017.2 995.8
18 15.04 СВ 3
{10}
н/о н/о -4.8 -15.2 44 -10 -10 1016.2 994.9
21 15.04 СВ 5
{10}
н/о н/о -4.6 -13.8 49 -11 -11 1015.5 994.3 -8.2
00 16.04 СВ 2
{11}
н/о н/о -3.7 -12.8 49 -7 -7 1014.6 993.5
03 16.04 ЮВ 4 н/о н/о -3.7 -9.8 63 -9 -9 1013.5 992.4
06 16.04 В 7-10
{10}
н/о н/о -4.0 -11.1 58 -12 -12 1012.3 991.2
09 16.04 В 7
{12}
н/о н/о -6.5 -14.3 54 -15 -15 1012.7 991.4 -2.1
12 16.04 ЮВ 7
{11}
н/о н/о -5.3 -16.8 40 -13 -13 1012.2 991.0
15 16.04 Ю 4 н/о н/о -7.8 -17.4 46 -14 -14 1012.4 991.0
18 16.04 Ю 3 н/о н/о -10.6 -17.4 57 -16 -16 1013.1 991.5
21 16.04 СВ 3 н/о н/о -10.7 -16.5 62 -17 -17 1014.4 992.8 -11.5
00 17.04 СЗ 1 н/о н/о -9.5 -14.5 67 -12 -12 1015.4 993.8
03 17.04 Ю 1 н/о н/о -9.8 -16.3 59 -12 -12 1016.9 995.2
06 17.04 С 4 н/о н/о -11.5 -14.3 80 -19 -19 1018.9 997.0
09 17.04 С 2 н/о н/о -14.5 -16.4 85 -19 -19 1021.5 999.4 -6.7
12 17.04 СЗ 1 н/о н/о -15.0 -17.0 85 -18 -18 1023.2 1001.0
15 17.04 Ю 2 н/о н/о -18.1 -20.3 83 -24 -24 1024.6 1002.1
18 17.04 Ю 6 н/о н/о -17.6 -20.0 81 -28 -28 1025.4 1002.9
21 17.04 Ю 3 н/о н/о -16.8 -19.1 82 -24 -24 1026.1 1003.7 -18.2
00 18.04 Ю 6 н/о н/о -13.5 -15.4 86 -23 -23 1025.1 1003.0
03 18.04 Ю 5 н/о н/о -12.7 -14.5 86 -21 -21 1023.6 1001.6
06 18.04 ЮЗ 3 н/о н/о -14.0 -16.0 85 -20 -20 1021.6 999.5
09 18.04 ЮВ 9-11
{11}
н/о н/о -10.0 -16.2 60 -20 -20 1019.5 997.8 -9.4
12 18.04 ЮВ 10-13
{14}
н/о н/о -9.6 -16.2 59 -20 -20 1016.9 995.3
15 18.04 В 9-11
{14}
н/о н/о -9.8 -16.5 58 -20 -20 1015.0 993.3
18 18.04 ЮВ 14-17
{17}
н/о н/о -8.1 -15.6 55 -20 -20 1012.9 991.5
21 18.04 ЮВ 9-10
{17}
н/о н/о -8.3 -14.5 61 -18 -18 1012.7 991.2 -10.4
00 19.04 ЮВ 8-11
{13}
н/о н/о -7.6 -12.1 70 -17 -17 1012.2 990.8
03 19.04 ЮВ 6
{11}
н/о н/о -7.1 -9.4 84 -15 -15 1012.4 991.1
09 19.04 СЗ 10-12
{13}
н/о н/о -11.4 -12.7 90 -22 -22 1016.2 994.4 -6.3

 

Местоположение метеостанции 21 км (Чукотка, Россия): широта 69.63 долгота 170.83 высота над уровнем моря 165 м.

В архиве по умолчанию представлена погода на 21 км за последнюю неделю. Архивные данные за месяц целиком и за предыдущие месяцы, начиная с января 2011 года, Вы можете получить, выбрав интересующий диапазон дат из раскрывающегося списка и нажав кнопку "Ввод!".


*Определитесь, кто Вы:
робот инопланетянин человек

Внимание! Время в таблицах - всемирное. Для получения местного времени необходимо прибавить поправку, которая равна 12 ч.

Смотрите также архив погоды в соседних городах и на ближайших метеорологических станциях:

Погода в Певеке (Чукотка, Россия) (26 км)
Погода в Валькаркае (Чукотка, Россия) (50 км)
Погода в Чауне (Чукотка, Россия) (84 км)
Погода в Комсомольской (Чукотка, Россия) (96 км)
Погода на Айон Острове (Чукотка, Россия) (117 км)
Погода в Паляваам-Глубокой (Чукотка, Россия) (139 км)
Погода в Майской (Чукотка, Россия) (158 км)
Погода в Раучуе (Чукотка, Россия) (169 км)
Погода на Мысе Биллингс (Чукотка, Россия) (189 км)
Погода в Билибино (Чукотка, Россия) (250 км)

Пояснения к столбцам:

Ветер - указаны скорость ветра в м/с - средняя за 10 мин, порывы в срок и между сроками (в фигурных скобках) и направление, откуда дует ветер: С - северный, СВ - северо-восточный, В - восточный, ЮВ - юго-восточный, Ю - южный, ЮЗ - юго-западный, З - западный, СЗ - северо-западный.
Видимость - горизонтальная дальность видимости в метрах или километрах. При видимости от 1 до 10 км при отсутствии осадков обычно наблюдается дымка, при ухудшении видимости до 1 км и менее - туман. В сухую погоду видимость может ухудшаться дымом, пылью или мглою.
Явления - указаны атмосферные явления, наблюдавшиеся в срок или в последний час перед сроком; фигурными скобками обозначены явления, наблюдавшиеся между сроками (за 1-3 часа до срока); квадратными скобками обозначены град или гололедные отложения с указанием их диаметра в мм.
Облачность - указаны через наклонную черту общая и нижняя облачность в баллах и высота нижней границы облаков в метрах; квадратными скобками обозначены формы облаков: Ci - перистые, Cs - перисто-слоистые, Cc - перисто-кучевые, Ac - высококучевые, As - высокослоистые, Sc - слоисто-кучевые, Ns - слоисто-дождевые, Cu - кучевые, Cb - кучево-дождевые. Подробнее классификацию облаков см. в Атласе облаков (PDF).
T - Температура воздуха - температура, измеренная на высоте 2 м над землей.
Td - Температура точки росы - температура, при понижении до которой содержащийся в воздухе водяной пар достигнет насыщения.
f - Относительная влажность воздуха - влажноcть воздуха, измеренная на высоте 2 м над землей.
Te - Эффективная температура - температура, которую ощущает одетый по сезону человек в тени. Характеристика душности погоды. При расчете учитывается влияние влажности воздуха и скорости ветра на теплоощущения человека.
Tes - Эффективная температура на солнце - температура, которую ощущает человек, с поправкой на солнечный нагрев. Характеристика знойности погоды. Зависит от высоты солнца над горизонтом, облачности и скорости ветра. Ночью, в пасмурную погоду, а также при ветре 12 м/с и более поправка равна нулю.
P - Атмосферное давление - приведенное к уровню моря атмосферное давление.
Po - Атмосферное давление - измеренное на уровне метеостанции атмосферное давление.
Tmin - Минимальная температура - минимум температуры воздуха на высоте 2 м над землей.
Tmax - Максимальная температура - максимум температуры воздуха на высоте 2 м над землей.
R - Количество осадков - Количество выпавших осадков за период времени, мм. При наведении курсора мыши на число - период времени, за который выпало указанное количество осадков.
R24 - Количество осадков - Количество выпавших осадков за 24 часа, мм.
S - Снежный покров - Высота снежного покрова, см. При наведении курсора мыши на число - состояние снежного покрова и степень покрытия местности в баллах.